Hourly Weather Roundup
Issued by NWS Central Illinois

Home | Current Version | Previous Version | Text Only | Print | Product List | Glossary On
Versions: 1 2 3 4 5 6 7 8 9 10 11 12 13 14 15 16 17 18 19 20 21 22 23 24 25 26 27 28 29 30 31 32 33 34 35 36 37 38 39 40 41 42 43 44 45 46 47 48 49 50
000
NZUS43 KILX 021710
HWRILX

AREA WEATHER ROUNDUP
NATIONAL WEATHER SERVICE, LINCOLN IL
1100 AM CST MON MAR 02 2015


CITY           SKY/WX    TMP DP  RH WIND       PRES   REMARKS
BLOOMINGTON    SUNNY     27  17  65 NE7       30.53S WCI  20
CHAMPAIGN      MOSUNNY   21  15  78 CALM      30.54S
DECATUR        MOSUNNY   28  18  66 E3        30.54F
FLORA          MOSUNNY   29  19  66 NE7       30.56F WCI  22
GALESBURG      MOSUNNY   22  15  74 CALM      30.53S
JACKSONVILLE   MOSUNNY   29  19  66 E5        30.53F WCI  24
LACON          SUNNY     25  13  59 CALM      30.53F
LAWRENCEVILLE  MOSUNNY   28  17  63 NE7       30.57F WCI  21
LITCHFIELD     MOSUNNY   25  23  90 N6        30.53F WCI  18
$$


CITY           SKY/WX    TMP DP  RH WIND       PRES   REMARKS
LINCOLN        MOSUNNY   26  18  73 CALM      30.56S
MACOMB         MOSUNNY   22  16  78 CALM      30.55F
MATTOON        FLURRIES  26  15  63 N6        30.53F WCI  19
MT CARMEL AP   MOSUNNY   32  18  55 NE9       30.56F WCI  24
OLNEY-NOBLE AP MOSUNNY   30  19  64 NE8       30.56S WCI  23
PARIS          MOSUNNY   21  16  79 CALM      30.56F
PEORIA         MOSUNNY   28  16  60 SW3       30.54S
PONTIAC        SUNNY     21  14  74 CALM      30.55S
RANTOUL        SUNNY     26  16  67 CALM      30.54S
ROBINSON       MOSUNNY   27  17  67 CALM      30.58F
SPRINGFIELD    MOSUNNY   33  20  58 CALM      30.54F
TAYLORVILLE    MOSUNNY   27  18  69 N5        30.55S WCI  21
$$

...REGIONAL REPORTS...


CITY           SKY/WX    TMP DP  RH WIND       PRES   REMARKS
CHICAGO O`HARE MOSUNNY   27  10  49 CALM      30.52R
KANKAKEE       SUNNY     22  14  71 SW3       30.55R
MOLINE         MOSUNNY   26  14  60 CALM      30.53S
MOUNT VERNON   SUNNY     30  19  64 E10       30.54F WCI  21
PITTSFIELD     PTSUNNY   30  19  63 NE6       30.52F WCI  24
QUINCY         PTSUNNY   28  16  60 NE6       30.51F WCI  22
ROCKFORD       MOSUNNY   25  12  58 CALM      30.53R
$$


CITY           SKY/WX    TMP DP  RH WIND       PRES   REMARKS
BURLINGTON     MOSUNNY   26  14  60 SE3       30.53S
CEDAR RAPIDS   MOSUNNY   18  12  77 NW6       30.50F WCI  10
DES MOINES     CLOUDY    28  12  51 SE7       30.49F WCI  21
KIRKSVILLE       N/A     27  17  66 E6        30.51F WCI  20
OTTUMWA        MOSUNNY   26  15  63 E3        30.51F
ST LOUIS       MOSUNNY   33  17  51 E9        30.54F WCI  25
$$


CITY           SKY/WX    TMP DP  RH WIND       PRES   REMARKS
TERRE HAUTE    MOSUNNY   27  16  63 CALM      30.55F
EVANSVILLE     MOSUNNY   34  18  52 E10       30.55F WCI  26
INDIANAPOLIS   PTSUNNY   27  14  58 CALM      30.54R
LAFAYETTE      SUNNY     23  13  65 CALM      30.55R
MADISON        MOSUNNY   23   8  52 NW7       30.50S WCI  15
MILWAUKEE      MOSUNNY   26   8  46 NW8       30.50R WCI  18
$$




USA.gov is the U.S. government's official web portal to all federal, state and local government web resources and services.